Darstellungsparameter: Aktuell verwendete Einstellungen:
Skalierung der Graphiken ... ?
xyx+y,   Skalierungsfaktor:      Skalierung: Modus: x, Faktor: 1
Darstellungszeitraum ... ?
Vom - - bis: - -   Zeitraum: 09.07.2022 - 10.07.2022
Min/Max/Avg-Anzeige ... ?
Zeige MMA aktuell
Zeige MMA Monat
Zeige MMA alles
Zeige --A aktuell
Zeige --A Monat
Zeige --A alles
Keine MMA-Anzeige
MMA:
Average (ber die Originaldaten)
MMA-Basis: 09.07.2022 - 10.07.2022
Quicknavigation für Darstellung... ?
Tage:      1T, 2T, 3T, 5T -1T -2T -3T -5T +1T +2T +3T +5T
Wochen: 1W, 2W, 3W -1W -2W -3W +1W +2W +3W
Monate: 1M, 3M, 6M -1M -3M -6M +1M +3M +6M
Jahre:    1J, 3J, 5J, 10J -1J -3J -5J -10J +1J +3J +5J +10J
Nutze für die Darstellung ... ?
Originaldaten oder Mittelwerte auf ...
Stundenbasis Tagesbasis Wochenbasis
Monatsbasis Jahresbasis      Datenbasis: Original-Daten
Darstellen als:
Statistik (Auto) Statistik J:M      Darstellung:
Zur Graphik,    zurück zur Übersicht aller Sensoren.
 
Tabellarische Datenbersicht: ?
 
Sensor: Nr:Datum:Temp:Abs-Feuchte:Windchill:Wind:
Aussen-T/F 1 09-07-2022 00:00:00 15.4 C 10.9 g/m*3 15.4 C 0 km/h
2 09-07-2022 00:05:00 15.3 C 10.97 g/m*3 15.3 C 0 km/h
3 09-07-2022 00:10:00 15.2 C 10.9 g/m*3 15.2 C 0 km/h
4 09-07-2022 00:15:00 15.2 C 10.9 g/m*3 15.2 C 0 km/h
5 09-07-2022 00:20:00 15.1 C 10.97 g/m*3 15.1 C 0 km/h
6 09-07-2022 00:25:00 15 C 10.9 g/m*3 15 C 0 km/h
7 09-07-2022 00:30:00 14.9 C 10.96 g/m*3 14.9 C 0 km/h
8 09-07-2022 00:35:00 14.9 C 10.96 g/m*3 14.9 C 0 km/h
9 09-07-2022 00:40:00 14.8 C 10.89 g/m*3 14.8 C 0 km/h
10 09-07-2022 00:45:00 14.9 C 10.96 g/m*3 14.9 C 1.6 km/h
11 09-07-2022 00:50:00 14.9 C 10.96 g/m*3 14.9 C 1.6 km/h
12 09-07-2022 00:55:00 14.9 C 10.96 g/m*3 14.9 C 1.6 km/h
13 09-07-2022 01:00:00 14.9 C 10.96 g/m*3 14.9 C 4.8 km/h
14 09-07-2022 01:05:00 14.9 C 10.96 g/m*3 14.9 C 4.8 km/h
15 09-07-2022 01:10:00 14.8 C 10.89 g/m*3 14.8 C 0 km/h
16 09-07-2022 01:15:00 14.8 C 10.89 g/m*3 14.8 C 1.6 km/h
17 09-07-2022 01:20:00 14.8 C 10.89 g/m*3 14.8 C 1.6 km/h
18 09-07-2022 01:25:00 14.7 C 10.95 g/m*3 14.7 C 1.6 km/h
19 09-07-2022 01:30:00 14.7 C 10.95 g/m*3 14.7 C 1.6 km/h
20 09-07-2022 01:35:00 14.7 C 10.95 g/m*3 14.7 C 3.2 km/h
21 09-07-2022 01:40:00 14.6 C 10.89 g/m*3 14.6 C 0 km/h
22 09-07-2022 01:45:00 14.6 C 10.89 g/m*3 14.6 C 1.6 km/h
23 09-07-2022 01:50:00 14.5 C 10.82 g/m*3 14.5 C 1.6 km/h
24 09-07-2022 01:55:00 14.4 C 10.88 g/m*3 14.4 C 6.4 km/h
25 09-07-2022 02:00:00 14.4 C 10.88 g/m*3 14.4 C 1.6 km/h
Sensor: Nr:Datum:Temp:Abs-Feuchte:Windchill:Wind:
Aussen-T/F 26 09-07-2022 02:05:00 14.3 C 10.81 g/m*3 14.3 C 1.6 km/h
27 09-07-2022 02:10:00 14.3 C 10.81 g/m*3 14.3 C 1.6 km/h
28 09-07-2022 02:15:00 14.2 C 10.75 g/m*3 14.2 C 1.6 km/h
29 09-07-2022 02:20:00 14.2 C 10.75 g/m*3 14.2 C 0 km/h
30 09-07-2022 02:25:00 14.1 C 10.68 g/m*3 14.1 C 0 km/h
31 09-07-2022 02:30:00 13.9 C 10.55 g/m*3 13.9 C 0 km/h
32 09-07-2022 02:35:00 13.9 C 10.55 g/m*3 13.9 C 1.6 km/h
33 09-07-2022 02:40:00 13.8 C 10.6 g/m*3 13.8 C 3.2 km/h
34 09-07-2022 02:45:00 13.8 C 10.6 g/m*3 13.8 C 0 km/h
35 09-07-2022 02:50:00 13.8 C 10.6 g/m*3 13.8 C 0 km/h
36 09-07-2022 02:55:00 13.7 C 10.54 g/m*3 13.7 C 0 km/h
37 09-07-2022 03:00:00 13.7 C 10.54 g/m*3 13.7 C 3.2 km/h
38 09-07-2022 03:05:00 13.6 C 10.47 g/m*3 13.6 C 0 km/h
39 09-07-2022 03:10:00 13.6 C 10.47 g/m*3 13.6 C 0 km/h
40 09-07-2022 03:15:00 13.5 C 10.41 g/m*3 13.5 C 0 km/h
41 09-07-2022 03:20:00 13.4 C 10.46 g/m*3 13.4 C 0 km/h
42 09-07-2022 03:25:00 13.4 C 10.46 g/m*3 13.4 C 0 km/h
43 09-07-2022 03:30:00 13.3 C 10.4 g/m*3 13.3 C 0 km/h
44 09-07-2022 03:35:00 13.3 C 10.4 g/m*3 13.3 C 0 km/h
45 09-07-2022 03:40:00 13.2 C 10.33 g/m*3 13.2 C 3.2 km/h
46 09-07-2022 03:45:00 13.2 C 10.45 g/m*3 13.2 C 1.6 km/h
47 09-07-2022 03:50:00 13.2 C 10.45 g/m*3 13.2 C 4.8 km/h
48 09-07-2022 03:55:00 13.2 C 10.45 g/m*3 13.2 C 1.6 km/h
49 09-07-2022 04:00:00 13.2 C 10.45 g/m*3 13.2 C 1.6 km/h
50 09-07-2022 04:05:00 13.2 C 10.45 g/m*3 13.2 C 0 km/h
Sensor: Nr:Datum:Temp:Abs-Feuchte:Windchill:Wind:
Aussen-T/F 51 09-07-2022 04:10:00 13.2 C 10.45 g/m*3 13.2 C 0 km/h
52 09-07-2022 04:15:00 13.1 C 10.38 g/m*3 13.1 C 0 km/h
53 09-07-2022 04:20:00 13 C 10.32 g/m*3 13 C 4.8 km/h
54 09-07-2022 04:25:00 13 C 10.43 g/m*3 13 C 1.6 km/h
55 09-07-2022 04:30:00 13.1 C 10.5 g/m*3 13.1 C 1.6 km/h
56 09-07-2022 04:35:00 13.1 C 10.5 g/m*3 13.1 C 3.2 km/h
57 09-07-2022 04:40:00 13.1 C 10.5 g/m*3 13.1 C 3.2 km/h
58 09-07-2022 04:45:00 13.1 C 10.5 g/m*3 13.1 C 1.6 km/h
59 09-07-2022 04:50:00 13.1 C 10.5 g/m*3 13.1 C 1.6 km/h
60 09-07-2022 04:55:00 13 C 10.43 g/m*3 13 C 4.8 km/h
61 09-07-2022 05:00:00 13 C 10.43 g/m*3 13 C 1.6 km/h
62 09-07-2022 05:05:00 13 C 10.43 g/m*3 13 C 1.6 km/h
63 09-07-2022 05:10:00 12.9 C 10.37 g/m*3 12.9 C 1.6 km/h
64 09-07-2022 05:15:00 12.9 C 10.37 g/m*3 12.9 C 3.2 km/h
65 09-07-2022 05:20:00 12.9 C 10.37 g/m*3 12.9 C 3.2 km/h
66 09-07-2022 05:25:00 12.8 C 10.3 g/m*3 12.8 C 0 km/h
67 09-07-2022 05:30:00 12.8 C 10.3 g/m*3 12.8 C 1.6 km/h
68 09-07-2022 05:35:00 12.8 C 10.3 g/m*3 12.8 C 0 km/h
69 09-07-2022 05:40:00 12.7 C 10.24 g/m*3 12.7 C 0 km/h
70 09-07-2022 05:45:00 12.7 C 10.24 g/m*3 12.7 C 3.2 km/h
71 09-07-2022 05:50:00 12.7 C 10.24 g/m*3 12.7 C 1.6 km/h
72 09-07-2022 05:55:00 12.7 C 10.24 g/m*3 12.7 C 0 km/h
73 09-07-2022 06:00:00 12.7 C 10.24 g/m*3 12.7 C 0 km/h
74 09-07-2022 06:05:00 12.6 C 10.18 g/m*3 12.6 C 1.6 km/h
75 09-07-2022 06:10:00 12.6 C 10.18 g/m*3 12.6 C 0 km/h
Sensor: Nr:Datum:Temp:Abs-Feuchte:Windchill:Wind:
Aussen-T/F 76 09-07-2022 06:15:00 12.6 C 10.18 g/m*3 12.6 C 0 km/h
77 09-07-2022 06:20:00 12.6 C 10.29 g/m*3 12.6 C 0 km/h
78 09-07-2022 06:25:00 12.6 C 10.18 g/m*3 12.6 C 0 km/h
79 09-07-2022 06:30:00 12.6 C 10.29 g/m*3 12.6 C 0 km/h
80 09-07-2022 06:35:00 12.6 C 10.29 g/m*3 12.6 C 0 km/h
81 09-07-2022 06:40:00 12.6 C 10.29 g/m*3 12.6 C 0 km/h
82 09-07-2022 06:45:00 12.6 C 10.29 g/m*3 12.6 C 0 km/h
83 09-07-2022 06:50:00 12.6 C 10.29 g/m*3 12.6 C 0 km/h
84 09-07-2022 06:55:00 12.6 C 10.29 g/m*3 12.6 C 0 km/h
85 09-07-2022 07:00:00 12.6 C 10.29 g/m*3 12.6 C 0 km/h
86 09-07-2022 07:05:00 12.7 C 10.35 g/m*3 12.7 C 0 km/h
87 09-07-2022 07:10:00 12.8 C 10.42 g/m*3 12.8 C 0 km/h
88 09-07-2022 07:15:00 12.8 C 10.42 g/m*3 12.8 C 0 km/h
89 09-07-2022 07:20:00 12.9 C 10.48 g/m*3 12.9 C 0 km/h
90 09-07-2022 07:25:00 12.9 C 10.48 g/m*3 12.9 C 0 km/h
91 09-07-2022 07:30:00 13 C 10.66 g/m*3 13 C 1.6 km/h
92 09-07-2022 07:35:00 13.1 C 10.73 g/m*3 13.1 C 3.2 km/h
93 09-07-2022 07:40:00 13.2 C 10.79 g/m*3 13.2 C 0 km/h
94 09-07-2022 07:45:00 13.3 C 10.86 g/m*3 13.3 C 0 km/h
95 09-07-2022 07:50:00 13.4 C 10.93 g/m*3 13.4 C 0 km/h
96 09-07-2022 07:55:00 13.7 C 11.13 g/m*3 13.7 C 6.4 km/h
97 09-07-2022 08:00:00 13.9 C 11.27 g/m*3 13.9 C 6.4 km/h
98 09-07-2022 08:05:00 14.2 C 11.36 g/m*3 14.2 C 1.6 km/h
99 09-07-2022 08:10:00 14.4 C 11.5 g/m*3 14.4 C 1.6 km/h
100 09-07-2022 08:15:00 14.6 C 11.64 g/m*3 14.6 C 1.6 km/h
Sensor: Nr:Datum:Temp:Abs-Feuchte:Windchill:Wind:
Aussen-T/F 101 09-07-2022 08:20:00 14.8 C 11.65 g/m*3 14.8 C 0 km/h
102 09-07-2022 08:25:00 15.1 C 11.87 g/m*3 15.1 C 0 km/h
103 09-07-2022 08:30:00 15.3 C 11.88 g/m*3 15.3 C 3.2 km/h
104 09-07-2022 08:35:00 15.6 C 11.97 g/m*3 15.6 C 4.8 km/h
105 09-07-2022 08:40:00 15.8 C 11.98 g/m*3 15.8 C 4.8 km/h
106 09-07-2022 08:45:00 15.9 C 11.92 g/m*3 15.9 C 4.8 km/h
107 09-07-2022 08:50:00 16.2 C 12 g/m*3 16.2 C 3.2 km/h
108 09-07-2022 08:55:00 16.3 C 11.93 g/m*3 16.3 C 0 km/h
109 09-07-2022 09:00:00 16.5 C 12.08 g/m*3 16.5 C 1.6 km/h
110 09-07-2022 09:05:00 16.8 C 12.15 g/m*3 16.8 C 1.6 km/h
111 09-07-2022 09:10:00 17 C 12.3 g/m*3 17 C 3.2 km/h
112 09-07-2022 09:15:00 17.2 C 12.3 g/m*3 17.2 C 1.6 km/h
113 09-07-2022 09:20:00 17.4 C 12.3 g/m*3 17.4 C 0 km/h
114 09-07-2022 09:25:00 17.7 C 12.37 g/m*3 17.7 C 3.2 km/h
115 09-07-2022 09:30:00 17.8 C 12.29 g/m*3 17.8 C 1.6 km/h
116 09-07-2022 09:35:00 18.1 C 12.52 g/m*3 18.1 C 0 km/h
117 09-07-2022 09:40:00 18.4 C 12.74 g/m*3 18.4 C 0 km/h
118 09-07-2022 09:45:00 18.7 C 12.81 g/m*3 18.7 C 0 km/h
119 09-07-2022 09:50:00 19 C 12.71 g/m*3 19 C 0 km/h
120 09-07-2022 09:55:00 19.4 C 13.01 g/m*3 19.4 C 0 km/h
121 09-07-2022 10:00:00 19.7 C 13.25 g/m*3 19.7 C 0 km/h
122 09-07-2022 10:05:00 19.9 C 13.06 g/m*3 19.9 C 4.8 km/h
123 09-07-2022 10:10:00 20.2 C 12.94 g/m*3 20.2 C 4.8 km/h
124 09-07-2022 10:15:00 20.4 C 12.91 g/m*3 20.4 C 4.8 km/h
125 09-07-2022 10:20:00 20.6 C 13.07 g/m*3 20.6 C 3.2 km/h
Sensor: Nr:Datum:Temp:Abs-Feuchte:Windchill:Wind:
Aussen-T/F 126 09-07-2022 10:25:00 20.7 C 13.14 g/m*3 20.7 C 6.4 km/h
127 09-07-2022 10:30:00 20.8 C 13.04 g/m*3 20.8 C 4.8 km/h
128 09-07-2022 10:35:00 20.9 C 13.11 g/m*3 20.9 C 8.1 km/h
129 09-07-2022 10:40:00 21.2 C 13.16 g/m*3 21.2 C 8.1 km/h
130 09-07-2022 10:45:00 21.3 C 13.05 g/m*3 21.3 C 9.7 km/h
131 09-07-2022 10:50:00 21.4 C 12.94 g/m*3 21.4 C 6.4 km/h
132 09-07-2022 10:55:00 21.6 C 13.09 g/m*3 21.6 C 9.7 km/h
133 09-07-2022 11:00:00 21.7 C 12.97 g/m*3 21.7 C 8.1 km/h
134 09-07-2022 11:05:00 21.6 C 12.9 g/m*3 21.6 C 6.4 km/h
135 09-07-2022 11:10:00 21.6 C 12.9 g/m*3 21.6 C 8.1 km/h
136 09-07-2022 11:15:00 21.6 C 12.9 g/m*3 21.6 C 9.7 km/h
137 09-07-2022 11:20:00 21.8 C 12.66 g/m*3 21.8 C 9.7 km/h
138 09-07-2022 11:25:00 21.9 C 12.93 g/m*3 21.9 C 4.8 km/h
139 09-07-2022 11:30:00 22.2 C 12.76 g/m*3 22.2 C 11.3 km/h
140 09-07-2022 11:35:00 22.6 C 12.66 g/m*3 22.6 C 9.7 km/h
141 09-07-2022 11:40:00 22.8 C 13 g/m*3 22.8 C 6.4 km/h
142 09-07-2022 11:45:00 23 C 12.74 g/m*3 23 C 6.4 km/h
143 09-07-2022 11:50:00 23 C 12.95 g/m*3 23 C 8.1 km/h
144 09-07-2022 11:55:00 23 C 12.95 g/m*3 23 C 8.1 km/h
145 09-07-2022 12:00:00 23.2 C 12.89 g/m*3 23.2 C 8.1 km/h
146 09-07-2022 12:05:00 23.6 C 12.76 g/m*3 23.6 C 8.1 km/h
147 09-07-2022 12:10:00 23.8 C 12.91 g/m*3 23.8 C 12.9 km/h
148 09-07-2022 12:15:00 23.6 C 12.76 g/m*3 23.6 C 12.9 km/h
149 09-07-2022 12:20:00 23.6 C 12.97 g/m*3 23.6 C 6.4 km/h
150 09-07-2022 12:25:00 23.7 C 12.62 g/m*3 23.7 C 6.4 km/h
Sensor: Nr:Datum:Temp:Abs-Feuchte:Windchill:Wind:
Aussen-T/F 151 09-07-2022 12:30:00 23.8 C 12.26 g/m*3 23.8 C 11.3 km/h
152 09-07-2022 12:35:00 24 C 12.4 g/m*3 24 C 11.3 km/h
153 09-07-2022 12:40:00 24.2 C 12.32 g/m*3 24.2 C 11.3 km/h
154 09-07-2022 12:45:00 24.4 C 12.24 g/m*3 24.4 C 9.7 km/h
155 09-07-2022 12:50:00 24.6 C 12.6 g/m*3 24.6 C 14.5 km/h
156 09-07-2022 12:55:00 24.7 C 12.45 g/m*3 24.7 C 14.5 km/h
157 09-07-2022 13:00:00 24.8 C 12.52 g/m*3 24.8 C 9.7 km/h
158 09-07-2022 13:05:00 25 C 12.66 g/m*3 25 C 6.4 km/h
159 09-07-2022 13:10:00 25.3 C 12.64 g/m*3 25.3 C 8.1 km/h
160 09-07-2022 13:15:00 25.7 C 12.69 g/m*3 25.7 C 11.3 km/h
161 09-07-2022 13:20:00 25.8 C 11.8 g/m*3 25.8 C 9.7 km/h
162 09-07-2022 13:25:00 25.8 C 11.56 g/m*3 25.8 C 16.1 km/h
163 09-07-2022 13:30:00 25.3 C 11.71 g/m*3 25.3 C 17.7 km/h
164 09-07-2022 13:35:00 24.9 C 11.9 g/m*3 24.9 C 17.7 km/h
165 09-07-2022 13:40:00 24.8 C 12.06 g/m*3 24.8 C 9.7 km/h
166 09-07-2022 13:45:00 25.1 C 12.04 g/m*3 25.1 C 14.5 km/h
167 09-07-2022 13:50:00 25.3 C 11.94 g/m*3 25.3 C 12.9 km/h
168 09-07-2022 13:55:00 25.7 C 12.45 g/m*3 25.7 C 12.9 km/h
169 09-07-2022 14:00:00 25.9 C 12.1 g/m*3 25.9 C 6.4 km/h
170 09-07-2022 14:05:00 25.8 C 11.8 g/m*3 25.8 C 11.3 km/h
171 09-07-2022 14:10:00 25.7 C 11.97 g/m*3 25.7 C 11.3 km/h
172 09-07-2022 14:15:00 25.5 C 11.84 g/m*3 25.5 C 11.3 km/h
173 09-07-2022 14:20:00 25.6 C 11.67 g/m*3 25.6 C 8.1 km/h
174 09-07-2022 14:25:00 25.6 C 11.43 g/m*3 25.6 C 16.1 km/h
175 09-07-2022 14:30:00 25.6 C 11.43 g/m*3 25.6 C 11.3 km/h
Sensor: Nr:Datum:Temp:Abs-Feuchte:Windchill:Wind:
Aussen-T/F 176 09-07-2022 14:35:00 25.4 C 11.3 g/m*3 25.4 C 11.3 km/h
177 09-07-2022 14:40:00 25.5 C 11.84 g/m*3 25.5 C 8.1 km/h
178 09-07-2022 14:45:00 25.8 C 11.32 g/m*3 25.8 C 16.1 km/h
179 09-07-2022 14:50:00 26.1 C 11.75 g/m*3 26.1 C 11.3 km/h
180 09-07-2022 14:55:00 26 C 11.44 g/m*3 26 C 20.9 km/h
181 09-07-2022 15:00:00 25.6 C 11.19 g/m*3 25.6 C 17.7 km/h
182 09-07-2022 15:05:00 25.3 C 11.24 g/m*3 25.3 C 6.4 km/h
183 09-07-2022 15:10:00 25 C 11.05 g/m*3 25 C 11.3 km/h
184 09-07-2022 15:15:00 24.8 C 11.38 g/m*3 24.8 C 8.1 km/h
185 09-07-2022 15:20:00 24.6 C 11.25 g/m*3 24.6 C 11.3 km/h
186 09-07-2022 15:25:00 24.4 C 11.57 g/m*3 24.4 C 9.7 km/h
187 09-07-2022 15:30:00 24.2 C 11.44 g/m*3 24.2 C 9.7 km/h
188 09-07-2022 15:35:00 24.1 C 11.6 g/m*3 24.1 C 9.7 km/h
189 09-07-2022 15:40:00 24.2 C 11.66 g/m*3 24.2 C 6.4 km/h
190 09-07-2022 15:45:00 24.3 C 11.95 g/m*3 24.3 C 8.1 km/h
191 09-07-2022 15:50:00 24.6 C 11.93 g/m*3 24.6 C 12.9 km/h
192 09-07-2022 15:55:00 24.8 C 12.06 g/m*3 24.8 C 11.3 km/h
193 09-07-2022 16:00:00 24.9 C 11.9 g/m*3 24.9 C 11.3 km/h
194 09-07-2022 16:05:00 25.2 C 12.11 g/m*3 25.2 C 8.1 km/h
195 09-07-2022 16:10:00 25.3 C 12.17 g/m*3 25.3 C 6.4 km/h
196 09-07-2022 16:15:00 25.7 C 12.21 g/m*3 25.7 C 12.9 km/h
197 09-07-2022 16:20:00 26 C 12.17 g/m*3 26 C 8.1 km/h
198 09-07-2022 16:25:00 26.4 C 12.45 g/m*3 26.4 C 8.1 km/h
199 09-07-2022 16:30:00 26.4 C 12.2 g/m*3 26.4 C 6.4 km/h
200 09-07-2022 16:35:00 26.2 C 12.06 g/m*3 26.2 C 8.1 km/h
Sensor: Nr:Datum:Temp:Abs-Feuchte:Windchill:Wind:
Aussen-T/F 201 09-07-2022 16:40:00 25.9 C 12.35 g/m*3 25.9 C 1.6 km/h
202 09-07-2022 16:45:00 25.7 C 11.97 g/m*3 25.7 C 6.4 km/h
203 09-07-2022 16:50:00 25.4 C 12.01 g/m*3 25.4 C 4.8 km/h
204 09-07-2022 16:55:00 25.1 C 11.57 g/m*3 25.1 C 8.1 km/h
205 09-07-2022 17:00:00 24.8 C 11.61 g/m*3 24.8 C 12.9 km/h
206 09-07-2022 17:05:00 24.6 C 11.93 g/m*3 24.6 C 22.5 km/h
207 09-07-2022 17:10:00 23.8 C 13.12 g/m*3 23.8 C 22.5 km/h
208 09-07-2022 17:15:00 22.7 C 12.93 g/m*3 22.7 C 24.1 km/h
209 09-07-2022 17:20:00 21.8 C 13.05 g/m*3 21.8 C 24.1 km/h
210 09-07-2022 17:25:00 21.1 C 13.63 g/m*3 21.1 C 19.3 km/h
211 09-07-2022 17:30:00 20.4 C 13.62 g/m*3 20.4 C 14.5 km/h
212 09-07-2022 17:35:00 20 C 14 g/m*3 20 C 12.9 km/h
213 09-07-2022 17:40:00 19.7 C 14.09 g/m*3 19.7 C 3.2 km/h
214 09-07-2022 17:45:00 19.4 C 14.01 g/m*3 19.4 C 8.1 km/h
215 09-07-2022 17:50:00 19.3 C 14.1 g/m*3 19.3 C 4.8 km/h
216 09-07-2022 17:55:00 19.1 C 14.1 g/m*3 19.1 C 4.8 km/h
217 09-07-2022 18:00:00 19.1 C 14.26 g/m*3 19.1 C 0 km/h
218 09-07-2022 18:05:00 19.1 C 14.43 g/m*3 19.1 C 0 km/h
219 09-07-2022 18:10:00 19.1 C 14.43 g/m*3 19.1 C 0 km/h
220 09-07-2022 18:15:00 19.2 C 14.68 g/m*3 19.2 C 0 km/h
221 09-07-2022 18:20:00 19.4 C 14.85 g/m*3 19.4 C 0 km/h
222 09-07-2022 18:25:00 19.7 C 14.94 g/m*3 19.7 C 1.6 km/h
223 09-07-2022 18:30:00 19.7 C 14.26 g/m*3 19.7 C 4.8 km/h
224 09-07-2022 18:35:00 19.8 C 14.35 g/m*3 19.8 C 1.6 km/h
225 09-07-2022 18:40:00 20 C 14.52 g/m*3 20 C 4.8 km/h
Sensor: Nr:Datum:Temp:Abs-Feuchte:Windchill:Wind:
Aussen-T/F 226 09-07-2022 18:45:00 20.2 C 14.51 g/m*3 20.2 C 0 km/h
227 09-07-2022 18:50:00 20.3 C 14.6 g/m*3 20.3 C 0 km/h
228 09-07-2022 18:55:00 20.5 C 14.77 g/m*3 20.5 C 0 km/h
229 09-07-2022 19:00:00 20.7 C 14.94 g/m*3 20.7 C 0 km/h
230 09-07-2022 19:05:00 20.7 C 14.76 g/m*3 20.7 C 1.6 km/h
231 09-07-2022 19:10:00 20.8 C 14.85 g/m*3 20.8 C 4.8 km/h
232 09-07-2022 19:15:00 20.8 C 14.67 g/m*3 20.8 C 0 km/h
233 09-07-2022 19:20:00 20.9 C 15.12 g/m*3 20.9 C 0 km/h
234 09-07-2022 19:25:00 21.1 C 15.29 g/m*3 21.1 C 3.2 km/h
235 09-07-2022 19:30:00 21.2 C 15.2 g/m*3 21.2 C 3.2 km/h
236 09-07-2022 19:35:00 21.3 C 14.91 g/m*3 21.3 C 1.6 km/h
237 09-07-2022 19:40:00 21.3 C 14.91 g/m*3 21.3 C 0 km/h
238 09-07-2022 19:45:00 21.4 C 15.19 g/m*3 21.4 C 3.2 km/h
239 09-07-2022 19:50:00 21.5 C 15.09 g/m*3 21.5 C 3.2 km/h
240 09-07-2022 19:55:00 21.6 C 14.79 g/m*3 21.6 C 1.6 km/h
241 09-07-2022 20:00:00 21.5 C 14.9 g/m*3 21.5 C 1.6 km/h
242 09-07-2022 20:05:00 21.4 C 14.81 g/m*3 21.4 C 1.6 km/h
243 09-07-2022 20:10:00 21.4 C 15 g/m*3 21.4 C 1.6 km/h
244 09-07-2022 20:15:00 21.4 C 14.81 g/m*3 21.4 C 0 km/h
245 09-07-2022 20:20:00 21.4 C 14.81 g/m*3 21.4 C 0 km/h
246 09-07-2022 20:25:00 21.4 C 14.81 g/m*3 21.4 C 0 km/h
247 09-07-2022 20:30:00 21.3 C 14.54 g/m*3 21.3 C 3.2 km/h
248 09-07-2022 20:35:00 21.2 C 14.46 g/m*3 21.2 C 4.8 km/h
249 09-07-2022 20:40:00 21.2 C 14.64 g/m*3 21.2 C 0 km/h
250 09-07-2022 20:45:00 21.1 C 14.74 g/m*3 21.1 C 8.1 km/h
Sensor: Nr:Datum:Temp:Abs-Feuchte:Windchill:Wind:
Aussen-T/F 251 09-07-2022 20:50:00 20.9 C 14.39 g/m*3 20.9 C 3.2 km/h
252 09-07-2022 20:55:00 20.8 C 14.3 g/m*3 20.8 C 6.4 km/h
253 09-07-2022 21:00:00 20.7 C 14.4 g/m*3 20.7 C 0 km/h
254 09-07-2022 21:05:00 20.6 C 14.14 g/m*3 20.6 C 11.3 km/h
255 09-07-2022 21:10:00 20.4 C 13.8 g/m*3 20.4 C 8.1 km/h
256 09-07-2022 21:15:00 20.3 C 13.72 g/m*3 20.3 C 1.6 km/h
257 09-07-2022 21:20:00 20.1 C 13.39 g/m*3 20.1 C 4.8 km/h
258 09-07-2022 21:25:00 19.9 C 13.06 g/m*3 19.9 C 6.4 km/h
259 09-07-2022 21:30:00 19.7 C 12.57 g/m*3 19.7 C 6.4 km/h
260 09-07-2022 21:35:00 19.6 C 12.15 g/m*3 19.6 C 9.7 km/h
261 09-07-2022 21:40:00 19.4 C 11.85 g/m*3 19.4 C 4.8 km/h
262 09-07-2022 21:45:00 19.4 C 12.35 g/m*3 19.4 C 1.6 km/h
263 09-07-2022 21:50:00 19.3 C 12.11 g/m*3 19.3 C 3.2 km/h
264 09-07-2022 21:55:00 19.2 C 12.2 g/m*3 19.2 C 3.2 km/h
265 09-07-2022 22:00:00 19.1 C 12.29 g/m*3 19.1 C 0 km/h
266 09-07-2022 22:05:00 18.8 C 11.76 g/m*3 18.8 C 1.6 km/h
267 09-07-2022 22:10:00 18.6 C 11.78 g/m*3 18.6 C 3.2 km/h
268 09-07-2022 22:15:00 18.4 C 11.64 g/m*3 18.4 C 6.4 km/h
269 09-07-2022 22:20:00 18.3 C 11.73 g/m*3 18.3 C 3.2 km/h
270 09-07-2022 22:25:00 18.2 C 11.66 g/m*3 18.2 C 0 km/h
271 09-07-2022 22:30:00 18 C 11.52 g/m*3 18 C 3.2 km/h
272 09-07-2022 22:35:00 17.8 C 11.54 g/m*3 17.8 C 1.6 km/h
273 09-07-2022 22:40:00 17.6 C 11.4 g/m*3 17.6 C 0 km/h
274 09-07-2022 22:45:00 17.3 C 11.34 g/m*3 17.3 C 0 km/h
275 09-07-2022 22:50:00 17.1 C 11.21 g/m*3 17.1 C 0 km/h
Sensor: Nr:Datum:Temp:Abs-Feuchte:Windchill:Wind:
Aussen-T/F 276 09-07-2022 22:55:00 16.9 C 11.08 g/m*3 16.9 C 3.2 km/h
277 09-07-2022 23:00:00 16.7 C 11.08 g/m*3 16.7 C 4.8 km/h
278 09-07-2022 23:05:00 16.6 C 11.16 g/m*3 16.6 C 1.6 km/h
279 09-07-2022 23:10:00 16.6 C 11.02 g/m*3 16.6 C 12.9 km/h
280 09-07-2022 23:15:00 16.7 C 11.08 g/m*3 16.7 C 3.2 km/h
281 09-07-2022 23:20:00 16.8 C 11.15 g/m*3 16.8 C 1.6 km/h
282 09-07-2022 23:25:00 16.9 C 10.93 g/m*3 16.9 C 6.4 km/h
283 09-07-2022 23:30:00 17.1 C 11.21 g/m*3 17.1 C 4.8 km/h
284 09-07-2022 23:35:00 17.2 C 10.98 g/m*3 17.2 C 8.1 km/h
285 09-07-2022 23:40:00 17.4 C 11.12 g/m*3 17.4 C 11.3 km/h
286 09-07-2022 23:45:00 17.6 C 11.1 g/m*3 17.6 C 12.9 km/h
287 09-07-2022 23:50:00 17.8 C 11.08 g/m*3 17.8 C 6.4 km/h
288 09-07-2022 23:55:00 17.8 C 11.08 g/m*3 17.8 C 11.3 km/h
289 10-07-2022 00:00:00 17.8 C 11.08 g/m*3 17.8 C 12.9 km/h
290 10-07-2022 00:05:00 17.8 C 11.08 g/m*3 17.8 C 11.3 km/h
291 10-07-2022 00:10:00 17.8 C 11.08 g/m*3 17.8 C 12.9 km/h
292 10-07-2022 00:15:00 17.8 C 11.08 g/m*3 17.8 C 6.4 km/h
293 10-07-2022 00:20:00 17.8 C 11.08 g/m*3 17.8 C 9.7 km/h
294 10-07-2022 00:25:00 17.8 C 11.08 g/m*3 17.8 C 3.2 km/h
295 10-07-2022 00:30:00 17.7 C 11.01 g/m*3 17.7 C 4.8 km/h
296 10-07-2022 00:35:00 17.7 C 11.01 g/m*3 17.7 C 6.4 km/h
297 10-07-2022 00:40:00 17.6 C 10.95 g/m*3 17.6 C 9.7 km/h
298 10-07-2022 00:45:00 17.4 C 10.67 g/m*3 17.4 C 11.3 km/h
299 10-07-2022 00:50:00 17.3 C 10.61 g/m*3 17.3 C 9.7 km/h
300 10-07-2022 00:55:00 17.2 C 10.54 g/m*3 17.2 C 8.1 km/h
Sensor: Nr:Datum:Temp:Abs-Feuchte:Windchill:Wind:
Aussen-T/F 301 10-07-2022 01:00:00 17.1 C 10.63 g/m*3 17.1 C 6.4 km/h
302 10-07-2022 01:05:00 17 C 10.56 g/m*3 17 C 1.6 km/h
303 10-07-2022 01:10:00 16.9 C 10.64 g/m*3 16.9 C 0 km/h
304 10-07-2022 01:15:00 16.9 C 10.64 g/m*3 16.9 C 1.6 km/h
305 10-07-2022 01:20:00 16.8 C 10.58 g/m*3 16.8 C 9.7 km/h
306 10-07-2022 01:25:00 16.8 C 10.58 g/m*3 16.8 C 8.1 km/h
307 10-07-2022 01:30:00 16.8 C 10.58 g/m*3 16.8 C 3.2 km/h
308 10-07-2022 01:35:00 16.7 C 10.37 g/m*3 16.7 C 11.3 km/h
309 10-07-2022 01:40:00 16.7 C 10.52 g/m*3 16.7 C 9.7 km/h
310 10-07-2022 01:45:00 16.7 C 10.52 g/m*3 16.7 C 4.8 km/h
311 10-07-2022 01:50:00 16.7 C 10.52 g/m*3 16.7 C 9.7 km/h
312 10-07-2022 01:55:00 16.6 C 10.45 g/m*3 16.6 C 3.2 km/h
313 10-07-2022 02:00:00 16.6 C 10.45 g/m*3 16.6 C 4.8 km/h
314 10-07-2022 02:05:00 16.5 C 10.53 g/m*3 16.5 C 4.8 km/h
315 10-07-2022 02:10:00 16.4 C 10.47 g/m*3 16.4 C 8.1 km/h
316 10-07-2022 02:15:00 16.4 C 10.47 g/m*3 16.4 C 6.4 km/h
317 10-07-2022 02:20:00 16.3 C 10.41 g/m*3 16.3 C 8.1 km/h
318 10-07-2022 02:25:00 16.3 C 10.41 g/m*3 16.3 C 8.1 km/h
319 10-07-2022 02:30:00 16.2 C 10.34 g/m*3 16.2 C 4.8 km/h
320 10-07-2022 02:35:00 16.1 C 10.28 g/m*3 16.1 C 17.7 km/h
321 10-07-2022 02:40:00 16.1 C 10.28 g/m*3 16.1 C 17.7 km/h
322 10-07-2022 02:45:00 15.9 C 10.02 g/m*3 15.9 C 14.5 km/h
323 10-07-2022 02:50:00 15.9 C 10.02 g/m*3 15.9 C 9.7 km/h
324 10-07-2022 02:55:00 15.7 C 9.9 g/m*3 15.7 C 9.7 km/h
325 10-07-2022 03:00:00 15.6 C 9.97 g/m*3 15.6 C 6.4 km/h
Sensor: Nr:Datum:Temp:Abs-Feuchte:Windchill:Wind:
Aussen-T/F 326 10-07-2022 03:05:00 15.4 C 9.85 g/m*3 15.4 C 8.1 km/h
327 10-07-2022 03:10:00 15.3 C 9.79 g/m*3 15.3 C 8.1 km/h
328 10-07-2022 03:15:00 15.2 C 9.73 g/m*3 15.2 C 14.5 km/h
329 10-07-2022 03:20:00 15.1 C 9.68 g/m*3 15.1 C 9.7 km/h
330 10-07-2022 03:25:00 14.9 C 9.56 g/m*3 14.9 C 9.7 km/h
331 10-07-2022 03:30:00 14.8 C 9.63 g/m*3 14.8 C 11.3 km/h
332 10-07-2022 03:35:00 14.7 C 9.57 g/m*3 14.7 C 12.9 km/h
333 10-07-2022 03:40:00 14.6 C 9.51 g/m*3 14.6 C 9.7 km/h
334 10-07-2022 03:45:00 14.6 C 9.51 g/m*3 14.6 C 9.7 km/h
335 10-07-2022 03:50:00 14.4 C 9.39 g/m*3 14.4 C 4.8 km/h
336 10-07-2022 03:55:00 14.3 C 9.46 g/m*3 14.3 C 4.8 km/h
337 10-07-2022 04:00:00 14.3 C 9.46 g/m*3 14.3 C 0 km/h
338 10-07-2022 04:05:00 14.2 C 9.52 g/m*3 14.2 C 6.4 km/h
339 10-07-2022 04:10:00 14 C 9.41 g/m*3 14 C 4.8 km/h
340 10-07-2022 04:15:00 13.9 C 9.35 g/m*3 13.9 C 3.2 km/h
341 10-07-2022 04:20:00 13.8 C 9.41 g/m*3 13.8 C 3.2 km/h
342 10-07-2022 04:25:00 13.7 C 9.35 g/m*3 13.7 C 0 km/h
343 10-07-2022 04:30:00 13.5 C 9.36 g/m*3 13.5 C 3.2 km/h
344 10-07-2022 04:35:00 13.4 C 9.3 g/m*3 13.4 C 3.2 km/h
345 10-07-2022 04:40:00 13.2 C 9.19 g/m*3 13.2 C 4.8 km/h
346 10-07-2022 04:45:00 13.1 C 9.24 g/m*3 13.1 C 1.6 km/h
347 10-07-2022 04:50:00 13.1 C 9.24 g/m*3 13.1 C 1.6 km/h
348 10-07-2022 04:55:00 12.9 C 9.13 g/m*3 12.9 C 4.8 km/h
349 10-07-2022 05:00:00 12.8 C 9.07 g/m*3 12.8 C 8.1 km/h
350 10-07-2022 05:05:00 12.8 C 9.18 g/m*3 12.8 C 3.2 km/h
Sensor: Nr:Datum:Temp:Abs-Feuchte:Windchill:Wind:
Aussen-T/F 351 10-07-2022 05:10:00 12.8 C 9.18 g/m*3 12.8 C 1.6 km/h
352 10-07-2022 05:15:00 12.7 C 9.13 g/m*3 12.7 C 3.2 km/h
353 10-07-2022 05:20:00 12.6 C 9.07 g/m*3 12.6 C 1.6 km/h
354 10-07-2022 05:25:00 12.5 C 9.02 g/m*3 12.5 C 0 km/h
355 10-07-2022 05:30:00 12.3 C 9.01 g/m*3 12.3 C 3.2 km/h
356 10-07-2022 05:35:00 12.2 C 8.96 g/m*3 12.2 C 4.8 km/h
357 10-07-2022 05:40:00 12.2 C 9.06 g/m*3 12.2 C 6.4 km/h
358 10-07-2022 05:45:00 12.1 C 9.01 g/m*3 12.1 C 1.6 km/h
359 10-07-2022 05:50:00 12.1 C 9.01 g/m*3 12.1 C 0 km/h
360 10-07-2022 05:55:00 12.2 C 9.06 g/m*3 12.2 C 4.8 km/h
361 10-07-2022 06:00:00 12.2 C 9.06 g/m*3 12.2 C 0 km/h
362 10-07-2022 06:05:00 12.1 C 9.01 g/m*3 12.1 C 3.2 km/h
363 10-07-2022 06:10:00 12.1 C 9.12 g/m*3 12.1 C 8.1 km/h
364 10-07-2022 06:15:00 12.1 C 9.12 g/m*3 12.1 C 3.2 km/h
365 10-07-2022 06:20:00 12.1 C 9.22 g/m*3 12.1 C 3.2 km/h
366 10-07-2022 06:25:00 12.1 C 9.22 g/m*3 12.1 C 1.6 km/h
367 10-07-2022 06:30:00 12.2 C 9.28 g/m*3 12.2 C 4.8 km/h
368 10-07-2022 06:35:00 12.3 C 9.34 g/m*3 12.3 C 1.6 km/h
369 10-07-2022 06:40:00 12.4 C 9.4 g/m*3 12.4 C 3.2 km/h
370 10-07-2022 06:45:00 12.6 C 9.51 g/m*3 12.6 C 8.1 km/h
371 10-07-2022 06:50:00 12.7 C 9.57 g/m*3 12.7 C 9.7 km/h
372 10-07-2022 06:55:00 12.8 C 9.52 g/m*3 12.8 C 8.1 km/h
373 10-07-2022 07:00:00 12.9 C 9.58 g/m*3 12.9 C 3.2 km/h
374 10-07-2022 07:05:00 13 C 9.64 g/m*3 13 C 1.6 km/h
375 10-07-2022 07:10:00 13.1 C 9.7 g/m*3 13.1 C 1.6 km/h
Sensor: Nr:Datum:Temp:Abs-Feuchte:Windchill:Wind:
Aussen-T/F 376 10-07-2022 07:15:00 13.2 C 9.76 g/m*3 13.2 C 4.8 km/h
377 10-07-2022 07:20:00 13.3 C 9.82 g/m*3 13.3 C 0 km/h
378 10-07-2022 07:25:00 13.4 C 9.76 g/m*3 13.4 C 0 km/h
379 10-07-2022 07:30:00 13.5 C 9.83 g/m*3 13.5 C 6.4 km/h
380 10-07-2022 07:35:00 13.6 C 9.77 g/m*3 13.6 C 3.2 km/h
381 10-07-2022 07:40:00 13.7 C 9.83 g/m*3 13.7 C 4.8 km/h
382 10-07-2022 07:45:00 13.8 C 9.77 g/m*3 13.8 C 6.4 km/h
383 10-07-2022 07:50:00 13.9 C 9.83 g/m*3 13.9 C 4.8 km/h
384 10-07-2022 07:55:00 13.9 C 9.83 g/m*3 13.9 C 11.3 km/h
385 10-07-2022 08:00:00 14 C 9.89 g/m*3 14 C 6.4 km/h
386 10-07-2022 08:05:00 14.1 C 9.95 g/m*3 14.1 C 9.7 km/h
387 10-07-2022 08:10:00 14.2 C 9.89 g/m*3 14.2 C 6.4 km/h
388 10-07-2022 08:15:00 14.3 C 9.95 g/m*3 14.3 C 9.7 km/h
389 10-07-2022 08:20:00 14.4 C 9.89 g/m*3 14.4 C 9.7 km/h
390 10-07-2022 08:25:00 14.4 C 9.89 g/m*3 14.4 C 8.1 km/h
391 10-07-2022 08:30:00 14.6 C 9.89 g/m*3 14.6 C 9.7 km/h
392 10-07-2022 08:35:00 14.6 C 10.01 g/m*3 14.6 C 11.3 km/h
393 10-07-2022 08:40:00 14.7 C 9.95 g/m*3 14.7 C 8.1 km/h
394 10-07-2022 08:45:00 14.8 C 9.88 g/m*3 14.8 C 12.9 km/h
395 10-07-2022 08:50:00 14.9 C 9.81 g/m*3 14.9 C 14.5 km/h
396 10-07-2022 08:55:00 15 C 9.75 g/m*3 15 C 14.5 km/h
397 10-07-2022 09:00:00 15.1 C 9.68 g/m*3 15.1 C 12.9 km/h
398 10-07-2022 09:05:00 15.1 C 9.68 g/m*3 15.1 C 12.9 km/h
399 10-07-2022 09:10:00 15.2 C 9.73 g/m*3 15.2 C 14.5 km/h
400 10-07-2022 09:15:00 15.2 C 9.73 g/m*3 15.2 C 9.7 km/h
Sensor: Nr:Datum:Temp:Abs-Feuchte:Windchill:Wind:
Aussen-T/F 401 10-07-2022 09:20:00 15.3 C 9.66 g/m*3 15.3 C 9.7 km/h
402 10-07-2022 09:25:00 15.4 C 9.59 g/m*3 15.4 C 12.9 km/h
403 10-07-2022 09:30:00 15.6 C 9.84 g/m*3 15.6 C 3.2 km/h
404 10-07-2022 09:35:00 15.7 C 9.77 g/m*3 15.7 C 8.1 km/h
405 10-07-2022 09:40:00 15.7 C 9.63 g/m*3 15.7 C 8.1 km/h
406 10-07-2022 09:45:00 15.8 C 9.56 g/m*3 15.8 C 8.1 km/h
407 10-07-2022 09:50:00 15.9 C 9.48 g/m*3 15.9 C 9.7 km/h
408 10-07-2022 09:55:00 16.1 C 9.6 g/m*3 16.1 C 11.3 km/h
409 10-07-2022 10:00:00 16.2 C 9.65 g/m*3 16.2 C 12.9 km/h
410 10-07-2022 10:05:00 16.2 C 9.93 g/m*3 16.2 C 6.4 km/h
411 10-07-2022 10:10:00 16.4 C 9.91 g/m*3 16.4 C 9.7 km/h
412 10-07-2022 10:15:00 16.4 C 9.77 g/m*3 16.4 C 9.7 km/h
413 10-07-2022 10:20:00 16.7 C 10.09 g/m*3 16.7 C 14.5 km/h
414 10-07-2022 10:25:00 16.8 C 9.87 g/m*3 16.8 C 4.8 km/h
415 10-07-2022 10:30:00 16.8 C 9.72 g/m*3 16.8 C 11.3 km/h
416 10-07-2022 10:35:00 16.8 C 9.87 g/m*3 16.8 C 9.7 km/h
417 10-07-2022 10:40:00 16.9 C 9.78 g/m*3 16.9 C 8.1 km/h
418 10-07-2022 10:45:00 16.9 C 9.49 g/m*3 16.9 C 12.9 km/h
419 10-07-2022 10:50:00 17.1 C 9.75 g/m*3 17.1 C 9.7 km/h
420 10-07-2022 10:55:00 17.3 C 9.58 g/m*3 17.3 C 14.5 km/h
421 10-07-2022 11:00:00 17.3 C 9.58 g/m*3 17.3 C 9.7 km/h
422 10-07-2022 11:05:00 17.2 C 9.67 g/m*3 17.2 C 6.4 km/h
423 10-07-2022 11:10:00 17.2 C 9.67 g/m*3 17.2 C 4.8 km/h
424 10-07-2022 11:15:00 17.4 C 9.48 g/m*3 17.4 C 12.9 km/h
425 10-07-2022 11:20:00 17.6 C 9.45 g/m*3 17.6 C 9.7 km/h
Sensor: Nr:Datum:Temp:Abs-Feuchte:Windchill:Wind:
Aussen-T/F 426 10-07-2022 11:25:00 17.8 C 9.56 g/m*3 17.8 C 11.3 km/h
427 10-07-2022 11:30:00 17.9 C 9.62 g/m*3 17.9 C 11.3 km/h
428 10-07-2022 11:35:00 17.8 C 9.56 g/m*3 17.8 C 6.4 km/h
429 10-07-2022 11:40:00 17.9 C 9.62 g/m*3 17.9 C 14.5 km/h
430 10-07-2022 11:45:00 18.1 C 9.58 g/m*3 18.1 C 12.9 km/h
431 10-07-2022 11:50:00 18.2 C 9.64 g/m*3 18.2 C 11.3 km/h
432 10-07-2022 11:55:00 18.3 C 9.54 g/m*3 18.3 C 16.1 km/h
433 10-07-2022 12:00:00 18.4 C 9.44 g/m*3 18.4 C 12.9 km/h
434 10-07-2022 12:05:00 18.4 C 9.44 g/m*3 18.4 C 14.5 km/h
435 10-07-2022 12:10:00 18.4 C 9.59 g/m*3 18.4 C 6.4 km/h
436 10-07-2022 12:15:00 18.4 C 9.75 g/m*3 18.4 C 9.7 km/h
437 10-07-2022 12:20:00 18.4 C 9.75 g/m*3 18.4 C 11.3 km/h
438 10-07-2022 12:25:00 18.5 C 9.65 g/m*3 18.5 C 12.9 km/h
439 10-07-2022 12:30:00 18.5 C 9.65 g/m*3 18.5 C 16.1 km/h
440 10-07-2022 12:35:00 18.4 C 9.75 g/m*3 18.4 C 14.5 km/h
441 10-07-2022 12:40:00 18.3 C 9.69 g/m*3 18.3 C 17.7 km/h
442 10-07-2022 12:45:00 18.2 C 9.79 g/m*3 18.2 C 14.5 km/h
443 10-07-2022 12:50:00 18.2 C 9.95 g/m*3 18.2 C 12.9 km/h
444 10-07-2022 12:55:00 18.3 C 9.85 g/m*3 18.3 C 14.5 km/h
445 10-07-2022 13:00:00 18.3 C 10.01 g/m*3 18.3 C 14.5 km/h
446 10-07-2022 13:05:00 18.4 C 9.91 g/m*3 18.4 C 12.9 km/h
447 10-07-2022 13:10:00 18.7 C 9.93 g/m*3 18.7 C 12.9 km/h
448 10-07-2022 13:15:00 18.8 C 9.99 g/m*3 18.8 C 12.9 km/h
449 10-07-2022 13:20:00 18.9 C 10.21 g/m*3 18.9 C 12.9 km/h
450 10-07-2022 13:25:00 18.9 C 10.21 g/m*3 18.9 C 14.5 km/h
Sensor: Nr:Datum:Temp:Abs-Feuchte:Windchill:Wind:
Aussen-T/F 451 10-07-2022 13:30:00 18.9 C 10.21 g/m*3 18.9 C 16.1 km/h
452 10-07-2022 13:35:00 18.7 C 10.09 g/m*3 18.7 C 19.3 km/h
453 10-07-2022 13:40:00 18.5 C 10.28 g/m*3 18.5 C 14.5 km/h
454 10-07-2022 13:45:00 18.6 C 10.19 g/m*3 18.6 C 14.5 km/h
455 10-07-2022 13:50:00 18.7 C 10.25 g/m*3 18.7 C 8.1 km/h
456 10-07-2022 13:55:00 18.8 C 10.31 g/m*3 18.8 C 16.1 km/h
457 10-07-2022 14:00:00 19 C 10.27 g/m*3 19 C 17.7 km/h
458 10-07-2022 14:05:00 19.2 C 10.22 g/m*3 19.2 C 16.1 km/h
459 10-07-2022 14:10:00 19.2 C 10.55 g/m*3 19.2 C 11.3 km/h
460 10-07-2022 14:15:00 19.2 C 10.55 g/m*3 19.2 C 12.9 km/h
461 10-07-2022 14:20:00 19.5 C 10.57 g/m*3 19.5 C 16.1 km/h
462 10-07-2022 14:25:00 19.7 C 10.7 g/m*3 19.7 C 12.9 km/h
463 10-07-2022 14:30:00 19.8 C 10.59 g/m*3 19.8 C 11.3 km/h
464 10-07-2022 14:35:00 19.7 C 10.87 g/m*3 19.7 C 11.3 km/h
465 10-07-2022 14:40:00 19.9 C 10.82 g/m*3 19.9 C 9.7 km/h
466 10-07-2022 14:45:00 20 C 10.71 g/m*3 20 C 14.5 km/h
467 10-07-2022 14:50:00 19.7 C 10.53 g/m*3 19.7 C 12.9 km/h
468 10-07-2022 14:55:00 19.3 C 10.62 g/m*3 19.3 C 11.3 km/h
469 10-07-2022 15:00:00 19 C 10.59 g/m*3 19 C 9.7 km/h
470 10-07-2022 15:05:00 18.8 C 10.79 g/m*3 18.8 C 9.7 km/h
471 10-07-2022 15:10:00 18.9 C 10.69 g/m*3 18.9 C 11.3 km/h
472 10-07-2022 15:15:00 18.9 C 10.69 g/m*3 18.9 C 11.3 km/h
473 10-07-2022 15:20:00 19 C 10.76 g/m*3 19 C 12.9 km/h
474 10-07-2022 15:25:00 19.1 C 10.82 g/m*3 19.1 C 12.9 km/h
475 10-07-2022 15:30:00 19.1 C 10.82 g/m*3 19.1 C 11.3 km/h
Sensor: Nr:Datum:Temp:Abs-Feuchte:Windchill:Wind:
Aussen-T/F 476 10-07-2022 15:35:00 19 C 10.76 g/m*3 19 C 9.7 km/h
477 10-07-2022 15:40:00 18.9 C 10.85 g/m*3 18.9 C 9.7 km/h
478 10-07-2022 15:45:00 18.8 C 10.79 g/m*3 18.8 C 9.7 km/h
479 10-07-2022 15:50:00 18.6 C 10.66 g/m*3 18.6 C 16.1 km/h
480 10-07-2022 15:55:00 18.4 C 10.85 g/m*3 18.4 C 12.9 km/h
481 10-07-2022 16:00:00 18.4 C 10.85 g/m*3 18.4 C 12.9 km/h
482 10-07-2022 16:05:00 18.4 C 10.85 g/m*3 18.4 C 6.4 km/h
483 10-07-2022 16:10:00 18.4 C 10.85 g/m*3 18.4 C 11.3 km/h
484 10-07-2022 16:15:00 18.5 C 10.92 g/m*3 18.5 C 9.7 km/h
485 10-07-2022 16:20:00 18.6 C 10.98 g/m*3 18.6 C 11.3 km/h
486 10-07-2022 16:25:00 18.6 C 10.98 g/m*3 18.6 C 11.3 km/h
487 10-07-2022 16:30:00 18.5 C 10.92 g/m*3 18.5 C 14.5 km/h
488 10-07-2022 16:35:00 18.4 C 10.85 g/m*3 18.4 C 9.7 km/h
489 10-07-2022 16:40:00 18.3 C 10.94 g/m*3 18.3 C 11.3 km/h
490 10-07-2022 16:45:00 18.2 C 11.04 g/m*3 18.2 C 12.9 km/h
491 10-07-2022 16:50:00 18.1 C 10.97 g/m*3 18.1 C 11.3 km/h
492 10-07-2022 16:55:00 18.1 C 11.12 g/m*3 18.1 C 11.3 km/h
493 10-07-2022 17:00:00 18.2 C 11.19 g/m*3 18.2 C 11.3 km/h
494 10-07-2022 17:05:00 18.2 C 11.19 g/m*3 18.2 C 16.1 km/h
495 10-07-2022 17:10:00 18.3 C 11.26 g/m*3 18.3 C 9.7 km/h
496 10-07-2022 17:15:00 18.3 C 11.26 g/m*3 18.3 C 9.7 km/h
497 10-07-2022 17:20:00 18.3 C 11.26 g/m*3 18.3 C 6.4 km/h
498 10-07-2022 17:25:00 18.3 C 11.41 g/m*3 18.3 C 6.4 km/h
499 10-07-2022 17:30:00 18.4 C 11.48 g/m*3 18.4 C 3.2 km/h
500 10-07-2022 17:35:00 18.6 C 11.62 g/m*3 18.6 C 8.1 km/h
Sensor: Nr:Datum:Temp:Abs-Feuchte:Windchill:Wind:
Aussen-T/F 501 10-07-2022 17:40:00 18.6 C 11.3 g/m*3 18.6 C 6.4 km/h
502 10-07-2022 17:45:00 18.6 C 11.3 g/m*3 18.6 C 8.1 km/h
503 10-07-2022 17:50:00 18.4 C 11.32 g/m*3 18.4 C 12.9 km/h
504 10-07-2022 17:55:00 18.4 C 11.32 g/m*3 18.4 C 8.1 km/h
505 10-07-2022 18:00:00 18.4 C 11.48 g/m*3 18.4 C 4.8 km/h
506 10-07-2022 18:05:00 18.5 C 11.39 g/m*3 18.5 C 6.4 km/h
507 10-07-2022 18:10:00 18.5 C 11.39 g/m*3 18.5 C 8.1 km/h
508 10-07-2022 18:15:00 18.7 C 11.53 g/m*3 18.7 C 9.7 km/h
509 10-07-2022 18:20:00 18.8 C 11.6 g/m*3 18.8 C 3.2 km/h
510 10-07-2022 18:25:00 18.8 C 11.43 g/m*3 18.8 C 8.1 km/h
511 10-07-2022 18:30:00 18.8 C 11.6 g/m*3 18.8 C 3.2 km/h
512 10-07-2022 18:35:00 18.7 C 11.53 g/m*3 18.7 C 6.4 km/h
513 10-07-2022 18:40:00 18.6 C 11.62 g/m*3 18.6 C 3.2 km/h
514 10-07-2022 18:45:00 18.6 C 11.62 g/m*3 18.6 C 4.8 km/h
515 10-07-2022 18:50:00 18.4 C 11.32 g/m*3 18.4 C 6.4 km/h
516 10-07-2022 18:55:00 18.4 C 11.48 g/m*3 18.4 C 3.2 km/h
517 10-07-2022 19:00:00 18.4 C 11.48 g/m*3 18.4 C 4.8 km/h
518 10-07-2022 19:05:00 18.4 C 11.48 g/m*3 18.4 C 1.6 km/h
519 10-07-2022 19:10:00 18.4 C 11.48 g/m*3 18.4 C 1.6 km/h
520 10-07-2022 19:15:00 18.4 C 11.48 g/m*3 18.4 C 6.4 km/h
521 10-07-2022 19:20:00 18.5 C 11.55 g/m*3 18.5 C 8.1 km/h
522 10-07-2022 19:25:00 18.5 C 11.55 g/m*3 18.5 C 4.8 km/h
523 10-07-2022 19:30:00 18.5 C 11.55 g/m*3 18.5 C 8.1 km/h
524 10-07-2022 19:35:00 18.4 C 11.48 g/m*3 18.4 C 3.2 km/h
525 10-07-2022 19:40:00 18.4 C 11.48 g/m*3 18.4 C 6.4 km/h
Sensor: Nr:Datum:Temp:Abs-Feuchte:Windchill:Wind:
Aussen-T/F 526 10-07-2022 19:45:00 18.4 C 11.48 g/m*3 18.4 C 1.6 km/h
527 10-07-2022 19:50:00 18.3 C 11.41 g/m*3 18.3 C 4.8 km/h
528 10-07-2022 19:55:00 18.3 C 11.41 g/m*3 18.3 C 4.8 km/h
529 10-07-2022 20:00:00 18.3 C 11.57 g/m*3 18.3 C 0 km/h
530 10-07-2022 20:05:00 18.3 C 11.57 g/m*3 18.3 C 3.2 km/h
531 10-07-2022 20:10:00 18.3 C 11.57 g/m*3 18.3 C 3.2 km/h
532 10-07-2022 20:15:00 18.3 C 11.57 g/m*3 18.3 C 1.6 km/h
533 10-07-2022 20:20:00 18.3 C 11.57 g/m*3 18.3 C 1.6 km/h
534 10-07-2022 20:25:00 18.3 C 11.57 g/m*3 18.3 C 0 km/h
535 10-07-2022 20:30:00 18.4 C 11.95 g/m*3 18.4 C 0 km/h
536 10-07-2022 20:35:00 18.4 C 11.95 g/m*3 18.4 C 0 km/h
537 10-07-2022 20:40:00 18.4 C 11.95 g/m*3 18.4 C 0 km/h
538 10-07-2022 20:45:00 18.4 C 12.11 g/m*3 18.4 C 0 km/h
539 10-07-2022 20:50:00 18.4 C 12.11 g/m*3 18.4 C 0 km/h
540 10-07-2022 20:55:00 18.4 C 12.11 g/m*3 18.4 C 0 km/h
541 10-07-2022 21:00:00 18.4 C 12.27 g/m*3 18.4 C 0 km/h
542 10-07-2022 21:05:00 18.3 C 12.04 g/m*3 18.3 C 0 km/h
543 10-07-2022 21:10:00 18.3 C 12.2 g/m*3 18.3 C 0 km/h
544 10-07-2022 21:15:00 18.2 C 12.12 g/m*3 18.2 C 0 km/h
545 10-07-2022 21:20:00 18.1 C 12.05 g/m*3 18.1 C 0 km/h
546 10-07-2022 21:25:00 17.9 C 11.91 g/m*3 17.9 C 0 km/h
547 10-07-2022 21:30:00 17.9 C 11.91 g/m*3 17.9 C 0 km/h
548 10-07-2022 21:35:00 17.8 C 11.84 g/m*3 17.8 C 0 km/h
549 10-07-2022 21:40:00 17.8 C 11.99 g/m*3 17.8 C 0 km/h
550 10-07-2022 21:45:00 17.7 C 11.92 g/m*3 17.7 C 0 km/h
Sensor: Nr:Datum:Temp:Abs-Feuchte:Windchill:Wind:
Aussen-T/F 551 10-07-2022 21:50:00 17.6 C 12 g/m*3 17.6 C 0 km/h
552 10-07-2022 21:55:00 17.5 C 11.93 g/m*3 17.5 C 0 km/h
553 10-07-2022 22:00:00 17.4 C 11.86 g/m*3 17.4 C 1.6 km/h
554 10-07-2022 22:05:00 17.3 C 11.79 g/m*3 17.3 C 1.6 km/h
555 10-07-2022 22:10:00 17.3 C 11.79 g/m*3 17.3 C 0 km/h
556 10-07-2022 22:15:00 17.2 C 11.86 g/m*3 17.2 C 0 km/h
557 10-07-2022 22:20:00 17.2 C 11.86 g/m*3 17.2 C 0 km/h
558 10-07-2022 22:25:00 17.2 C 11.86 g/m*3 17.2 C 0 km/h
559 10-07-2022 22:30:00 17.1 C 11.79 g/m*3 17.1 C 3.2 km/h
560 10-07-2022 22:35:00 17.1 C 11.94 g/m*3 17.1 C 3.2 km/h
561 10-07-2022 22:40:00 17 C 11.87 g/m*3 17 C 1.6 km/h
562 10-07-2022 22:45:00 16.9 C 11.79 g/m*3 16.9 C 1.6 km/h
563 10-07-2022 22:50:00 16.9 C 11.79 g/m*3 16.9 C 0 km/h
564 10-07-2022 22:55:00 16.9 C 11.79 g/m*3 16.9 C 0 km/h
565 10-07-2022 23:00:00 16.9 C 11.94 g/m*3 16.9 C 0 km/h
566 10-07-2022 23:05:00 16.9 C 11.94 g/m*3 16.9 C 0 km/h
567 10-07-2022 23:10:00 16.9 C 11.94 g/m*3 16.9 C 0 km/h
568 10-07-2022 23:15:00 16.9 C 11.94 g/m*3 16.9 C 0 km/h
569 10-07-2022 23:20:00 16.8 C 11.87 g/m*3 16.8 C 1.6 km/h
570 10-07-2022 23:25:00 16.8 C 11.87 g/m*3 16.8 C 0 km/h
571 10-07-2022 23:30:00 16.8 C 12.01 g/m*3 16.8 C 0 km/h
572 10-07-2022 23:35:00 16.8 C 12.01 g/m*3 16.8 C 1.6 km/h
573 10-07-2022 23:40:00 16.8 C 12.01 g/m*3 16.8 C 0 km/h
574 10-07-2022 23:45:00 16.8 C 12.01 g/m*3 16.8 C 0 km/h
575 10-07-2022 23:50:00 16.8 C 12.01 g/m*3 16.8 C 0 km/h
Sensor: Nr:Datum:Temp:Abs-Feuchte:Windchill:Wind:
Aussen-T/F 576 10-07-2022 23:55:00 16.7 C 11.94 g/m*3 16.7 C 0 km/h

Legende:
   Min
   Max


Maximal/Minimal-Werte vom 09.07.2022 - 10.07.2022

Sensor Min Max Avg
Temp
(Aussen-T/F)
12.1 °C
10-07-2022  05:45:00
26.4 °C
09-07-2022  16:25:00
17.7 °C
Abs-Feuchte
(Aussen-T/F)
8.96 g/m*3
10-07-2022  05:35:00
15.29 g/m*3
09-07-2022  19:25:00
11.23 g/m*3
Windchill
(Aussen-T/F)
12.1 C
10-07-2022  05:45:00
26.4 C
09-07-2022  16:25:00
17.67 C

Die Daten stammen von einer Davis Vantage Pro 2 Wetter-Station und werden unter Linux mit der Software wview2wettercgi und aufbereitet. Alle Angaben erfolgen ohne Gewähr für ihre Vollständigkeit oder Richtigkeit.
Kontakt: Rainer Krienke krienke@uni-koblenz.de . Meine Webseiten an der Uni Koblenz oder privat.
Version: $Revision: 0.78 $